Retour au catalogue

STARLINK-31838

ActifCommunicationsVLEO
NORAD 60130·PAYLOAD·🇺🇸 United States

Lancé Jun 24, 2024 depuis Vandenberg Space Force Base

Loading…

Prochains Passages (prochaines 24 heures)

TLE

FraisSource: CelesTrak SupGP

Époque: Sep 14, 2026, 22:24 UTC

1 60130C 24118T   26257.93381944  .00018276  00000+0  58731-3 0  2576
2 60130  53.1575 226.2816 0001441 100.0844 146.2296 15.31714507    17

Suivez STARLINK-31838 en temps réel avec AllMySat

Download on the App Store